Weather in Prikumskoe

Russia / Stavropol Krai     44°14′11″N   42°53′59″E
temp.,
°C
wind,
m/s
gust,
m/s
humid.,
%
clouds,
%
prec.,
mm/h
press.,
hPa
HPBL,
m
9 may, sun
sun900:00+13ese338128 0.0 101033
03:00+12e0084100 0.0 100911
06:00+14w3581100 0.0 1009161
09:00+17nw456673 0.0 1009805
12:00+14nw6983100 0.3 1010828
15:00+8wnw111590100 6.1 1015978
18:00+5w111795100 1.3 1019994
21:00+5w101694100 2.3 10211019
10 may, mon
mon1000:00+6w91486100 0.1 1022857
03:00+5w8147999 0.1 1022642
06:00+6w714745 0.0 1022802
09:00+9wnw9125866 0.0 10211823
12:00+11wnw9125084 0.1 10202169
15:00+13wnw10124567 0.1 10182282
18:00+10wnw6116265 0.0 10191390
21:00+6wsw4108146 0.1 1020394
11 may, tue
tue1100:00+4ssw23878 0.0 101942
03:00+4se229146 0.0 101920
06:00+6se2480100 0.0 1018141
09:00+10se6963100 0.0 10171021
12:00+12ese6859100 0.0 10171346
15:00+13ese465295 0.0 10171578
18:00+13e476727 0.0 1017414
21:00+8e128433 0.0 101812
12 may, wed
wed1200:00+7ese338981 0.0 101851
03:00+6ese338974 0.0 101844
06:00+7ese24859 0.0 1018120
09:00+12ese57657 0.0 1017694
12:00+17ese77560 0.0 10171177
15:00+18ese66550 0.0 10161283
18:00+17ese48680 0.0 1016415
21:00+11se33864 0.0 101634
13 may, thu
thu1300:00+10ese238931 0.0 101529
03:00+9ese23910 0.0 101633
06:00+11ese24870 0.0 1016103
09:00+18ese46660 0.0 1015563
12:00+22ese57565 0.0 1014862
15:00+23ese6755100 0.0 10141049
18:00+20ese596820 0.0 1015369
21:00+15se348092 0.0 101552